• Processing (Info)

  • MPEC 2020-K78 : 2020 JF3

    The following Minor Planet Electronic Circular may be linked-to from your own Web pages, but must not otherwise be redistributed electronically.

    A form allowing access to any MPEC is at the bottom of this page.


    Read MPEC 2020-K77 Read MPEC 2020-K79


    M.P.E.C. 2020-K78                                  Issued 2020 May 20, 01:51 UT
    
         The Minor Planet Electronic Circulars contain information on unusual
             minor planets and routine data on comets.  They are published
        on behalf of Division F of the International Astronomical Union by the
              Minor Planet Center, Smithsonian Astrophysical Observatory,
                              Cambridge, MA 02138, U.S.A.
    
                 Prepared using the Tamkin Foundation Computer Network
    
                                  MPC@CFA.HARVARD.EDU
                URL https://www.minorplanetcenter.net/    ISSN 1523-6714
    
                                    2020 JF3                                 
    
    
    Observations:
         K20J03F* C2020 05 11.32332915 52 43.306-01 21 47.16         22.01wUEK078F51
         K20J03F  C2020 05 11.34456515 52 38.826-01 21 36.30         21.80wUEK078F51
         K20J03F  C2020 05 11.35522115 52 36.592-01 21 30.97         21.72wUEK078F51
         K20J03F ^C2020 05 16.51155215 36 01.800-00 45 14.09         22.58GVEK078568
         K20J03F ^C2020 05 16.51249915 36 01.622-00 45 13.75         22.32GVEK078568
         K20J03F ^C2020 05 16.51344715 36 01.450-00 45 13.44         21.79GVEK078568
         K20J03F ^C2020 05 16.51439615 36 01.271-00 45 13.15         22.06GVEK078568
         K20J03F ^C2020 05 18.27987215 30 51.928-00 36 24.84         22.40GVEK078568
         K20J03F ^C2020 05 18.28081915 30 51.764-00 36 24.55         21.94GVEK078568
         K20J03F ^C2020 05 18.28177815 30 51.593-00 36 24.32         21.95GVEK078568
    
    Observer details:
    568 Mauna Kea.  Observers R. Wainscoat, L. Wells, T. Burdullis.  Measurers R. 
       Weryk, R. Wainscoat.  3.6-m Canada-France-Hawaii Telescope + CCD.
    F51 Pan-STARRS 1, Haleakala.  Observers J. Bulger, T. Lowe, A. Schultz, M. 
       Willman.  Measurers K. Chambers, S. Chastel, T. de Boer, L. Denneau, J. 
       Fairlamb, H. Flewelling, M. Huber, C.-C. Lin, E. Magnier, Y. Ramanjooloo, R. 
       Wainscoat, R. Weryk.  1.8-m Ritchey-Chretien + CCD.
    
    Orbital elements:
    2020 JF3                                                 Earth MOID = 0.0412 AU
    Epoch 2020 May 31.0 TT = JDT 2459000.5                  Pan
    M  99.49601              (2000.0)            P               Q
    n   0.77485654     Peri.  272.15433     -0.00167753     -0.99998889
    a   1.1739651      Node   177.92638     +0.95905780     -0.00285637
    e   0.5706485      Incl.    6.99262     +0.28320543     +0.00374963
    P   1.27           H   22.2           G   0.15           U   8
    Residuals in seconds of arc
    200511 F51  0.3+  0.1+    200516 568  0.0   0.0     200518 568  0.0   0.0
    200511 F51  0.2-  0.0     200516 568  0.0   0.0     200518 568  0.0   0.0
    200511 F51  0.1-  0.1-    200516 568  0.0   0.0
    200516 568  0.0   0.0     200518 568  0.0   0.0
    
    Ephemeris:
    2020 JF3                 a,e,i = 1.17, 0.57, 7                   q = 0.5040
    Date    TT    R. A. (2000) Decl.     Delta      r    Elong.  Phase     V
    2020 04 20    17 12 42.3 -06 22 56   0.3876  1.2895   130.2    36.5    22.2
    ...
    2020 05 05    16 15 25.4 -02 27 56   0.4242  1.4037   154.6    17.9    22.0
    ...
    2020 05 13    15 47 06.0 -01 08 06   0.4646  1.4586   161.5    12.7    22.1
    ...
    2020 05 19    15 28 49.0 -00 33 14   0.5049  1.4971   160.4    13.1    22.4
    2020 05 20    15 26 03.9 -00 29 27   0.5124  1.5033   159.8    13.4    22.4
    2020 05 21    15 23 24.0 -00 26 12   0.5201  1.5094   159.1    13.9    22.5
    ...
    2020 05 27    15 09 17.5 -00 17 34   0.5707  1.5449   153.4    17.1    22.8
    ...
    2020 06 04    14 55 22.6 -00 30 34   0.6484  1.5888   144.8    21.6    23.3
    ...
    2020 06 19    14 42 03.3 -01 45 37   0.8185  1.6612   129.4    28.2    24.1
    
    M. P. C. Staff               (C) Copyright 2020 MPC           M.P.E.C. 2020-K78
    


    Read MPEC 2020-K77 Read MPEC 2020-K79


    MPEC number:

    Enter an MPEC number in one of the following forms:

    • 1997-B01 (the full form)
    • J97B01 (the packed version of the full form)
    • B01 (the abbreviated form)